Regional Weather Roundup
Issued by NWS

Home | Current Version | Previous Version | Text Only | Print | Product List | Glossary Off
Versions: 1 2 3 4 5 6 7 8 9 10 11 12 13 14 15 16 17 18 19 20 21 22 23 24 25 26 27 28 29 30 31 32 33 34 35 36 37 38 39 40 41 42 43 44 45 46 47 48 49 50

000
ASUS43 KMKX 290500
RWRWI

WISCONSIN REGIONAL WEATHER ROUNDUP
NATIONAL WEATHER SERVICE MILWAUKEE/SULLIVAN WI
1100 PM CST SUN DEC 28 2014

NOTE: "FAIR" INDICATES FEW OR NO CLOUDS BELOW 12,000 FEET WITH NO
SIGNIFICANT WEATHER AND/OR OBSTRUCTIONS TO VISIBILITY.

WIZ001-002-006>008-014>016-023>028-290600-
NORTHWEST WISCONSIN

CITY           SKY/WX    TMP DP  RH WIND       PRES   REMARKS
SUPERIOR ARPT  CLEAR      6  -3  66 N6        30.39R WCI  -5
ASHLAND        CLEAR      0  -5  79 W3        30.35R
HAYWARD        CLEAR     -6 -11  79 CALM      30.31R
SIREN          CLEAR     -3  -6  87 N3        30.35R
CUMBERLAND     PTCLDY     3  -6  66 N3        30.30R
RICE LAKE      PTCLDY     2  -3  77 CALM      30.32R
CHETEK         PTCLDY    -2  -5  87 CALM      30.32R
LADYSMITH      CLEAR     -4  -8  84 CALM      30.31R
EAU CLAIRE     NOT AVBL
MENOMONIE      MOCLDY     5   1  86 CALM      30.33R
NEW RICHMOND   PTCLDY     2  -3  82 N3        30.34R
OSCEOLA        PTCLDY    -1  -4  86 CALM      30.38R
$$

WIZ003>005-009-010-017-018-290600-
NORTH CENTRAL WISCONSIN

CITY           SKY/WX    TMP DP  RH WIND       PRES   REMARKS
MANITOWISH WTR PTCLDY   -12 -16  81 CALM      30.22S
ARBOR VITAE    PTCLDY    -4  -8  82 CALM      30.23R
WOODRUFF       PTCLDY    -4  -8  82 CALM      30.23R
RHINELANDER    PTCLDY    -4  -6  91 W3        30.24R
EAGLE RIVER    PTCLDY     0  -5  80 CALM      30.22R
LAND O LAKES   FLURRIES   4   1  87 NW6       30.22R WCI  -7
PHILLIPS       CLEAR    -10 -14  84 CALM      30.25R
TOMAHAWK       PTCLDY   -10 -14  82 CALM      30.26R
MEDFORD        PTCLDY   N/A N/A N/A N5        30.26R
MERRILL        PTCLDY    -1  -4  90 CALM      30.26R
$$

WIZ029-030-035-036-043>047-290600-
CENTRAL WISCONSIN

CITY           SKY/WX    TMP DP  RH WIND       PRES   REMARKS
WAUSAU         PTCLDY     5   1  83 NW6       30.26R WCI  -6
MOSINEE        PTCLDY     9   7  92 N5        30.27R WCI   0
MARSHFIELD     MOCLDY     9   5  84 NE5       30.28R WCI   1
STEVENS POINT  PTCLDY    10   7  88 CALM      30.28R
WAUPACA        CLEAR     19  14  82 N6        30.29R WCI  10
WAUTOMA        NOT AVBL
WISC RAPIDS    MOCLDY    14   7  73 NE6       30.30R WCI   5
CAMP DOUGLAS   NOT AVBL
$$

WIZ011>013-019>022-031-037>040-048>050-290600-
NORTHEAST WISCONSIN

CITY           SKY/WX    TMP DP  RH WIND       PRES   REMARKS
ANTIGO         PTCLDY    -4  -6  90 CALM      30.24R
SHAWANO        FAIR      16  10  75 CALM      30.29R
OCONTO         CLEAR     15   8  73 N5        30.30R WCI   7
STURGEON BAY   CLEAR     16   7  67 N12       30.29R WCI   3
GREEN BAY      CLEAR     18  10  71 N10       30.29R WCI   6
MANITOWOC      NOT AVBL
APPLETON       PTCLDY    19  14  79 N7        30.27R WCI  10
CLINTONVILLE   CLEAR     18  10  73 N6        30.29R WCI   9
OSHKOSH        PTCLDY    20  13  74 NW8       30.27R WCI  10
$$

WIZ032>034-041-042-053>061-290600-
SOUTHWEST WISCONSIN

CITY           SKY/WX    TMP DP  RH WIND       PRES   REMARKS
LA CROSSE      MOCLDY    18  14  84 N5        30.32R WCI  11
SPARTA         PTCLDY    14  12  92 CALM      30.31R
VIROQUA        MOCLDY    19  16  87 NE5       30.26R WCI  13
BOSCOBEL       MOCLDY    23  18  81 VRB5      30.28R WCI  17
PRAIRIE DU CHI CLOUDY    25  19  80 CALM      30.27R
PLATTEVILLE    CLOUDY    25  21  85 CALM      30.25R
$$

WIZ056-057-062-063-064-067-068-290600-
SOUTH CENTRAL WISCONSIN

CITY           SKY/WX    TMP DP  RH WIND       PRES   REMARKS
REEDSBURG      MOCLDY    20  15  79 N6        30.28R WCI  13
BARABOO/DELLS  MOCLDY    21  14  73 N5        30.27R WCI  15
LONE ROCK      NOT AVBL
MINERAL POINT  MOCLDY    27  21  80 N5        30.23R WCI  21
MADISON        CLOUDY    26  20  77 N12       30.26R WCI  16
MIDDLETON      CLOUDY    29  22  75 N9        30.25R WCI  20
WATERTOWN      CLOUDY    26  22  84 N8        30.24R WCI  18
MONROE         PTCLDY    25  19  80 N3        30.23R
JANESVILLE     PTCLDY    23  19  86 CALM      30.24R
$$

WIZ051-052-058>065-066-070>072-290600-
SOUTHEAST WISCONSIN

CITY           SKY/WX    TMP DP  RH WIND       PRES   REMARKS
MILWAUKEE      MOCLDY    24  17  74 CALM      30.25R
WAUKESHA       CLOUDY    21  19  93 CALM      30.25R
MILWAUKEE/TIMM CLOUDY    27  19  74 CALM      30.25R
RACINE         PTCLDY    24  17  74 NW5       30.26R WCI  18
BURLINGTON     CLOUDY    21  19  93 CALM      30.25R
KENOSHA        CLOUDY    26  19  74 N3        30.25R
FOND DU LAC    CLOUDY    23  15  71 N7        30.27R WCI  15
SHEBOYGAN      CLOUDY    24  15  68 N9        30.26R WCI  14
WEST BEND      CLOUDY    27  19  74 N7        30.24R WCI  19
JUNEAU         CLOUDY    24  19  79 N10       30.26R WCI  14
$$

LSZ147-162-290600-
LAKE SUPERIOR

STATION/POSITION TIME  TEMP    WIND        PRES    WAVE
                       AIR SEA DIR/SP/G            HT/PER
                 (UTC) (F)     (DEG/KT/KT) (MB)    (FT/S)
DEVILS ISLAND    0400   11     330/ 14/ 17 1028.5R
PORT WING        0400   12     330/ 12/ 17 1027.4R
SAXON HARBOR     0400    7     200/  6/  8 1026.8
$$

LMZ867-665-643>646-290600-
LAKE MICHIGAN

STATION/POSITION TIME  TEMP    WIND        PRES    WAVE
                       AIR SEA DIR/SP/G            HT/PER
                 (UTC) (F)     (DEG/KT/KT) (MB)    (FT/S)
CHAMBERS ISLAND  0400   17     320/ 14/ 19 1025.1R
NORTHPORT PIER   0409   19     320/ 17/ 19 1024.7R
SISTER BAY       0413           10/ 24/ 29   N/A
ALGOMA LAKESHORE 0415          350/  9/ 11   N/A
KEWAUNEE LAKESHO 0400   21     350/  3/  9 1023.8R
SHEBOYGAN LAKESH 0400   26 36  340/  9/ 11 1025.6R
PORT WASHINGTON  0400   28     330/  3/  5 1024.7R
MILWAUKEE LAKESH 0400   29     340/  4/  5   N/A
KENOSHA   LAKESH 0400   29     330/  5/  6 1024.0R
$$

TC  - TEMPERATURE IN CELSIUS
VSB - VISIBILITY IN STATUTE MILES
WCI - WIND CHILL INDEX
HX  - HEAT INDEX



USA.gov is the U.S. government's official web portal to all federal, state and local government web resources and services.